HISAKI (SPRINT-A)       
1 39253U 13049A   19265.84615743  .00000061  00000-0 -78231-5 0  9994
2 39253  29.7200 119.1137 0137588 245.3455 113.2732 13.55221723298589
EPSILON DEB             
1 39254U 13049B   19265.98806347  .00000086  00000-0  12590-4 0  9993
2 39254  29.7055  83.8812 0182556 212.9516 145.9565 13.75211083303008
EPSILON R/B             
1 39255U 13049C   19265.46704976  .00000104  00000-0  18799-4 0  9990
2 39255  29.7507 303.9775 0113810 192.1023 167.6816 14.01027545308603